Hourly Weather Barnowiec

Today, 19 April, Monday

Time Temperature Precipitation Wind Pressure Humidity
00:00 +6°C° 0 mm 2 mps 753 mmHg 85%
01:00 +6°C° 0 mm 2 mps 753 mmHg 83%
02:00 +5°C° 0 mm 2 mps 753 mmHg 84%
03:00 +5°C° 0 mm 2 mps 753 mmHg 85%
04:00 +6°C° 0 mm 1 mps 753 mmHg 86%
05:00 +6°C° 0 mm 2 mps 753 mmHg 82%
06:00 +8°C° 0 mm 2 mps 753 mmHg 79%
07:00 +9°C° 0 mm 2 mps 752 mmHg 75%
08:00 +11°C° 0 mm 3 mps 752 mmHg 66%
09:00 +13°C° 0 mm 3 mps 752 mmHg 56%
10:00 +15°C° 0 mm 4 mps 752 mmHg 47%
11:00 +17°C° 0 mm 4 mps 752 mmHg 44%
12:00 +18°C° 0 mm 4 mps 752 mmHg 40%
13:00 +18°C° 0 mm 4 mps 752 mmHg 37%
14:00 +17°C° 0 mm 5 mps 752 mmHg 38%
15:00 +16°C° 0 mm 5 mps 752 mmHg 38%
16:00 +15°C° 0 mm 5 mps 751 mmHg 39%
17:00 +13°C° 0 mm 5 mps 752 mmHg 47%
18:00 +11°C° 0 mm 4 mps 752 mmHg 54%
19:00 +9°C° 0 mm 3 mps 752 mmHg 61%
20:00 +9°C° 0 mm 3 mps 752 mmHg 64%
21:00 +8°C° 0 mm 2 mps 752 mmHg 68%
22:00 +7°C° 0 mm 2 mps 752 mmHg 71%
23:00 +7°C° 0 mm 2 mps 751 mmHg 73%

Tomorrow, 20 April, Tuesday

Time Temperature Precipitation Wind Pressure Humidity
00:00 +8°C° 0 mm 1 mps 751 mmHg 75%
01:00 +8°C° 0 mm 1 mps 751 mmHg 76%
02:00 +8°C° 0 mm 1 mps 751 mmHg 77%
03:00 +8°C° 0 mm 1 mps 751 mmHg 78%
04:00 +9°C° 0 mm 1 mps 751 mmHg 78%
05:00 +10°C° 0 mm 1 mps 751 mmHg 75%
06:00 +9°C° 0 mm 0 mps 751 mmHg 72%
07:00 +10°C° 0 mm 0 mps 751 mmHg 69%
08:00 +12°C° 0.2 mm 1 mps 750 mmHg 62%
09:00 +14°C° 0.2 mm 1 mps 750 mmHg 56%
10:00 +15°C° 0.2 mm 1 mps 750 mmHg 49%
11:00 +15°C° 0.1 mm 2 mps 750 mmHg 48%
12:00 +15°C° 0.1 mm 2 mps 749 mmHg 47%
13:00 +15°C° 0.1 mm 2 mps 749 mmHg 47%
14:00 +15°C° 0.1 mm 2 mps 749 mmHg 48%
15:00 +15°C° 0.1 mm 2 mps 749 mmHg 49%
16:00 +15°C° 0.1 mm 2 mps 748 mmHg 50%
17:00 +13°C° 0 mm 2 mps 748 mmHg 56%
18:00 +12°C° 0 mm 2 mps 748 mmHg 61%
19:00 +10°C° 0 mm 2 mps 748 mmHg 66%
20:00 +9°C° 0 mm 2 mps 748 mmHg 68%
21:00 +10°C° 0 mm 1 mps 748 mmHg 69%
22:00 +9°C° 0 mm 1 mps 748 mmHg 71%
23:00 +9°C° 0 mm 1 mps 747 mmHg 71%

Day after tomorrow, 21 April, Wednesday

Time Temperature Precipitation Wind Pressure Humidity
00:00 +8°C° 0 mm 0 mps 747 mmHg 71%
01:00 +8°C° 0 mm 0 mps 747 mmHg 70%
02:00 +8°C° 0 mm 0 mps 747 mmHg 72%
03:00 +9°C° 0 mm 1 mps 746 mmHg 73%
04:00 +8°C° 0 mm 1 mps 746 mmHg 74%
05:00 +9°C° 0 mm 1 mps 746 mmHg 72%
06:00 +10°C° 0 mm 1 mps 746 mmHg 69%
07:00 +10°C° 0 mm 1 mps 746 mmHg 67%
08:00 +10°C° 0 mm 2 mps 746 mmHg 59%
09:00 +13°C° 0 mm 2 mps 745 mmHg 52%
10:00 +13°C° 0 mm 3 mps 745 mmHg 45%
11:00 +13°C° 0 mm 3 mps 745 mmHg 45%
12:00 +13°C° 0 mm 4 mps 745 mmHg 44%
13:00 +13°C° 0 mm 4 mps 744 mmHg 44%
14:00 +12°C° 0.1 mm 5 mps 744 mmHg 51%
15:00 +10°C° 0.1 mm 5 mps 744 mmHg 58%
16:00 +9°C° 0.1 mm 6 mps 744 mmHg 65%
17:00 +7°C° 0.2 mm 5 mps 744 mmHg 71%
18:00 +6°C° 0.2 mm 5 mps 744 mmHg 77%
19:00 +4°C° 0.2 mm 4 mps 745 mmHg 82%
20:00 +3°C° 0 mm 4 mps 744 mmHg 80%
21:00 +2°C° 0 mm 5 mps 744 mmHg 78%
22:00 +2°C° 0 mm 5 mps 744 mmHg 76%
23:00 +1°C° 0 mm 6 mps 744 mmHg 76%

22 April, Thursday

Time Temperature Precipitation Wind Pressure Humidity
00:00 +1°C° 0 mm 6 mps 743 mmHg 75%
01:00 -1°C° 0 mm 6 mps 743 mmHg 75%
02:00 -1°C° 0 mm 6 mps 743 mmHg 78%
03:00 -1°C° 0 mm 7 mps 743 mmHg 81%
04:00 -1°C° 0 mm 7 mps 743 mmHg 84%
05:00 -1°C° 0.2 mm 7 mps 743 mmHg 84%
06:00 -1°C° 0.2 mm 7 mps 742 mmHg 84%
07:00 -1°C° 0.2 mm 7 mps 742 mmHg 84%
08:00 -1°C° 0.2 mm 7 mps 742 mmHg 85%
09:00 0°C° 0.2 mm 7 mps 743 mmHg 86%
10:00 +1°C° 0.2 mm 6 mps 743 mmHg 88%
11:00 +1°C° 0.4 mm 6 mps 743 mmHg 87%
12:00 +2°C° 0.4 mm 6 mps 743 mmHg 87%
13:00 +2°C° 0.4 mm 6 mps 743 mmHg 87%
14:00 +2°C° 0.5 mm 6 mps 743 mmHg 89%
15:00 +2°C° 0.5 mm 5 mps 743 mmHg 92%
16:00 +1°C° 0.5 mm 4 mps 743 mmHg 94%
17:00 +1°C° 0.3 mm 4 mps 743 mmHg 94%
18:00 +2°C° 0.3 mm 3 mps 743 mmHg 94%
19:00 +2°C° 0.3 mm 3 mps 743 mmHg 95%
20:00 +2°C° 0 mm 3 mps 744 mmHg 94%
21:00 +1°C° 0 mm 3 mps 744 mmHg 93%
22:00 +1°C° 0 mm 3 mps 744 mmHg 93%
23:00 +1°C° 0 mm 3 mps 745 mmHg 92%

23 April, Friday

Time Temperature Precipitation Wind Pressure Humidity
00:00 +1°C° 0 mm 4 mps 745 mmHg 92%
01:00 +1°C° 0 mm 4 mps 745 mmHg 92%
02:00 +1°C° 0 mm 4 mps 746 mmHg 93%
03:00 +2°C° 0 mm 3 mps 746 mmHg 93%
04:00 +2°C° 0 mm 3 mps 746 mmHg 94%
05:00 +1°C° 0.1 mm 4 mps 747 mmHg 94%
06:00 +1°C° 0.1 mm 4 mps 747 mmHg 93%
07:00 +1°C° 0.1 mm 5 mps 748 mmHg 92%
08:00 +2°C° 0.1 mm 5 mps 748 mmHg 85%
09:00 +3°C° 0.1 mm 5 mps 749 mmHg 78%
10:00 +3°C° 0.1 mm 5 mps 749 mmHg 71%
11:00 +5°C° 0.1 mm 5 mps 749 mmHg 64%
12:00 +6°C° 0.1 mm 5 mps 750 mmHg 56%
13:00 +7°C° 0.1 mm 5 mps 750 mmHg 49%
14:00 +7°C° 0 mm 5 mps 750 mmHg 46%
15:00 +7°C° 0 mm 4 mps 750 mmHg 43%
16:00 +7°C° 0 mm 4 mps 750 mmHg 40%
17:00 +7°C° 0 mm 3 mps 749 mmHg 47%
18:00 +6°C° 0 mm 2 mps 749 mmHg 54%
19:00 +6°C° 0 mm 1 mps 749 mmHg 61%
20:00 +5°C° 0.1 mm 1 mps 749 mmHg 67%
21:00 +4°C° 0.1 mm 2 mps 749 mmHg 73%
22:00 +3°C° 0.1 mm 2 mps 748 mmHg 78%
23:00 +3°C° 0.9 mm 2 mps 748 mmHg 85%

24 April, Saturday

Time Temperature Precipitation Wind Pressure Humidity
00:00 +2°C° 0.9 mm 2 mps 748 mmHg 91%
01:00 +1°C° 0.9 mm 3 mps 748 mmHg 97%
02:00 +1°C° 0.4 mm 2 mps 749 mmHg 96%
03:00 +1°C° 0.4 mm 2 mps 749 mmHg 95%
04:00 +1°C° 0.4 mm 1 mps 749 mmHg 94%
05:00 +1°C° 0.1 mm 2 mps 750 mmHg 88%
06:00 +1°C° 0.1 mm 3 mps 750 mmHg 82%
07:00 +2°C° 0.1 mm 3 mps 751 mmHg 75%
08:00 +3°C° 0.1 mm 4 mps 751 mmHg 68%
09:00 +4°C° 0.1 mm 4 mps 752 mmHg 61%
10:00 +5°C° 0.1 mm 5 mps 752 mmHg 53%
11:00 +4°C° 0.3 mm 6 mps 752 mmHg 55%
12:00 +3°C° 0.3 mm 6 mps 753 mmHg 56%
13:00 +3°C° 0.3 mm 6 mps 753 mmHg 57%
14:00 +3°C° 0.2 mm 6 mps 753 mmHg 54%
15:00 +3°C° 0.2 mm 6 mps 754 mmHg 52%
16:00 +3°C° 0.2 mm 6 mps 754 mmHg 49%
17:00 +2°C° 0 mm 5 mps 754 mmHg 55%
18:00 +1°C° 0 mm 4 mps 754 mmHg 61%
19:00 +1°C° 0 mm 3 mps 755 mmHg 66%
20:00 +1°C° 0 mm 3 mps 755 mmHg 70%
21:00 +1°C° 0 mm 2 mps 755 mmHg 74%
22:00 -1°C° 0 mm 2 mps 755 mmHg 78%
23:00 -1°C° 0 mm 2 mps 755 mmHg 77%
Show more